FW0460 Weather Reports


time (UTC)temp
C
wind
direction
speed
KPH
gust
KPH
rain 1hr
cm
rain 24hr
cm
rain mn
cm
humidity
%
barometer
mb
20260506094027 23 209 9.7 27.4 0.00 0.00 0.00 47 1011.6
20260506093023 23 212 11.3 27.4 0.00 0.00 0.00 47 1011.7
20260506092018 23 218 8.0 24.1 0.00 0.00 0.00 47 1011.7
20260506091055 23 220 8.0 24.1 0.00 0.00 0.00 46 1011.6
20260506090029 23 211 14.5 37.0 0.00 0.00 0.00 46 1011.6
20260506085026 22 206 12.9 27.4 0.00 0.00 0.00 48 1011.5
20260506084121 22 207 12.9 32.2 0.00 0.00 0.00 48 1011.6
20260506083017 22 228 9.7 27.4 0.00 0.00 0.00 48 1011.6
20260506082032 22 219 11.3 27.4 0.00 0.00 0.00 49 1011.7
20260506081028 22 234 11.3 27.4 0.00 0.00 0.00 50 1011.7
20260506073032 21 216 9.7 24.1 0.00 0.00 0.00 55 1011.9
20260506072028 20 208 8.0 20.9 0.00 0.00 0.00 56 1011.9
20260506071024 20 207 9.7 27.4 0.00 0.00 0.00 57 1011.9
20260506062024 18 216 8.0 20.9 0.00 0.00 0.00 61 1012.1
20260506061020 18 205 6.4 20.9 0.00 0.00 0.00 63 1012.1
20260506051055 15 175 6.4 12.9 0.00 0.00 0.00 72 1011.9
20260506045026 13 122 3.2 12.9 0.00 0.00 0.00 75 1011.8
20260506044022 13 176 1.6 8.0 0.00 0.00 0.00 76 1011.8
20260506043018 12 168 1.6 8.0 0.00 0.00 0.00 77 1011.6
20260506042055 12 170 0.0 8.0 0.00 0.00 0.00 77 1011.5
20260506041029 11 171 1.6 8.0 0.00 0.00 0.00 78 1011.4
20260506040026 12 181 1.6 8.0 0.00 0.00 0.00 77 1011.3
20260506035021 12 183 1.6 3.2 0.00 0.00 0.00 77 1011.4
20260506034037 11 164 0.0 3.2 0.00 0.00 0.00 78 1011.2
20260506033033 11 176 0.0 3.2 0.00 0.00 0.00 78 1011.1
20260506032029 10 160 0.0 3.2 0.00 0.00 0.00 79 1011.1
20260506031026 10 174 1.6 8.0 0.00 0.00 0.00 78 1011.1
20260506030021 10 182 3.2 8.0 0.00 0.00 0.00 78 1011.2
20260506025017 10 181 0.0 3.2 0.00 0.00 0.00 78 1011.1
20260506024033 11 190 1.6 8.0 0.00 0.00 0.00 77 1011.1
20260506023028 11 175 0.0 8.0 0.00 0.00 0.00 77 1010.8
20260506022024 11 164 0.0 3.2 0.00 0.00 0.00 77 1010.9
20260506021020 11 177 0.0 3.2 0.00 0.00 0.00 77 1010.9
20260506020035 11 160 0.0 3.2 0.00 0.00 0.00 77 1010.9
20260506015031 11 0.0 3.2 0.00 0.00 0.00 77 1011.1
20260506014027 11 164 0.0 3.2 0.00 0.00 0.00 77 1011.1
20260506013023 11 0.0 0.0 0.00 0.00 0.00 77 1011.2
20260506012019 11 0.0 3.2 0.00 0.00 0.00 77 1011.2
20260506011036 11 163 0.0 3.2 0.00 0.00 0.00 76 1011.2
20260506010031 11 172 1.6 3.2 0.00 0.00 0.00 76 1011.2
20260506005047 11 0.0 0.0 0.00 0.00 0.00 77 1011.2
20260506004103 11 0.0 0.0 0.00 0.00 0.00 76 1011.2
20260506003019 11 164 0.0 3.2 0.00 0.00 0.00 76 1011.2
20260506002056 11 0.0 0.0 0.00 0.00 0.00 76 1011.3
20260506001032 11 0.0 0.0 0.00 0.00 0.00 75 1011.2
20260506000108 11 0.0 0.0 0.00 0.00 0.00 75 1011.3
20260505235023 12 0.0 0.0 0.00 0.00 0.00 74 1011.4
20260505234019 12 0.0 0.0 0.00 0.00 0.00 73 1011.3
20260505233036 12 0.0 0.0 0.00 0.00 0.00 72 1011.3
20260505232102 12 0.0 0.0 0.00 0.00 0.00 72 1011.3
20260505231026 13 0.0 0.0 0.00 0.00 0.00 70 1011.2
20260505230022 13 169 0.0 3.2 0.00 0.00 0.00 70 1011.3
20260505225018 13 0.0 0.0 0.00 0.00 0.00 69 1011.2
20260505224035 13 184 0.0 3.2 0.00 0.00 0.00 69 1011.2
20260505223031 13 143 0.0 3.2 0.00 0.00 0.00 69 1011.2
20260505222026 13 140 0.0 3.2 0.00 0.00 0.00 68 1011.1
20260505221022 14 0.0 0.0 0.00 0.00 0.00 65 1011.1
20260505220017 15 242 1.6 8.0 0.00 0.00 0.00 64 1011.1
20260505215053 15 249 3.2 8.0 0.00 0.00 0.00 63 1011.1
20260505214049 15 258 6.4 12.9 0.00 0.00 0.00 62 1011.1
20260505213024 16 261 8.0 16.1 0.00 0.00 0.00 61 1011.1
20260505212020 16 259 8.0 12.9 0.00 0.00 0.00 60 1011.3
20260505211035 16 253 6.4 16.1 0.00 0.00 0.00 60 1011.2
20260505210032 15 264 4.8 8.0 0.00 0.00 0.00 60 1011.3
20260505205027 15 256 4.8 12.9 0.00 0.00 0.00 60 1011.3
20260505204023 15 252 4.8 12.9 0.00 0.00 0.00 58 1011.2
20260505203020 16 250 8.0 16.1 0.00 0.00 0.00 54 1011.1
20260505202036 16 248 4.8 8.0 0.00 0.00 0.00 52 1010.9
20260505201031 17 0.0 0.0 0.00 0.00 0.00 51 1010.6
20260505200028 17 243 1.6 3.2 0.00 0.00 0.00 49 1010.5
20260505195024 18 241 1.6 3.2 0.00 0.00 0.00 48 1010.4
20260505194040 18 248 6.4 12.9 0.00 0.00 0.00 47 1010.3
20260505193016 18 236 0.0 8.0 0.00 0.00 0.00 53 1010.2
20260505192031 18 0.0 3.2 0.00 0.00 0.00 51 1010.0
20260505191027 18 0.0 0.0 0.00 0.00 0.00 52 1009.9
20260505190023 18 0.0 0.0 0.00 0.00 0.00 54 1009.9
20260505185019 18 172 0.0 3.2 0.00 0.00 0.00 51 1009.9
20260505184035 20 153 0.0 3.2 0.00 0.00 0.00 48 1009.9
20260505183030 20 191 0.0 3.2 0.00 0.00 0.00 49 1009.8
20260505182026 21 128 0.0 3.2 0.00 0.00 0.00 48 1009.7
20260505181022 21 130 0.0 3.2 0.00 0.00 0.00 49 1009.7
20260505180018 21 0.0 0.0 0.00 0.00 0.00 47 1009.7
20260505175033 22 0.0 0.0 0.00 0.00 0.00 45 1009.7
20260505174048 22 0.0 0.0 0.00 0.00 0.00 46 1009.6
20260505173025 23 0.0 0.0 0.00 0.00 0.00 44 1009.5
20260505172020 23 0.0 3.2 0.00 0.00 0.00 42 1009.5
20260505171016 24 0.0 0.0 0.00 0.00 0.00 42 1009.6
20260505170032 25 0.0 0.0 0.00 0.00 0.00 40 1009.7
20260505165028 26 0.0 3.2 0.00 0.00 0.00 37 1009.7
20260505164024 25 250 0.0 8.0 0.00 0.00 0.00 39 1009.8
20260505163020 24 248 1.6 3.2 0.00 0.00 0.00 39 1009.8
20260505162016 24 251 4.8 12.9 0.00 0.00 0.00 38 1010.0
20260505161032 24 246 8.0 16.1 0.00 0.00 0.00 38 1009.8
20260505153035 27 205 6.4 16.1 0.00 0.00 0.00 28 1010.0
20260505152031 27 219 4.8 16.1 0.00 0.00 0.00 28 1010.0
20260505151107 27 193 9.7 24.1 0.00 0.00 0.00 27 1010.1
20260505125031 28 194 11.3 24.1 0.00 0.00 0.00 27 1011.5
20260505124027 28 205 11.3 20.9 0.00 0.00 0.00 27 1011.7
20260505123043 28 193 4.8 20.9 0.00 0.00 0.00 26 1011.8
20260505122019 28 176 6.4 16.1 0.00 0.00 0.00 27 1012.0
20260505121035 28 203 8.0 24.1 0.00 0.00 0.00 27 1012.1
20260505120030 27 197 9.7 27.4 0.00 0.00 0.00 27 1012.2
20260505115026 27 195 11.3 24.1 0.00 0.00 0.00 27 1012.2
20260505114023 27 195 11.3 24.1 0.00 0.00 0.00 27 1012.4
20260505113039 27 183 11.3 32.2 0.00 0.00 0.00 27 1012.5
20260505112015 27 191 6.4 20.9 0.00 0.00 0.00 27 1012.5
20260505111031 27 177 8.0 24.1 0.00 0.00 0.00 27 1012.7
20260505102029 27 202 9.7 24.1 0.00 0.00 0.00 27 1013.1
20260505101025 26 182 12.9 27.4 0.00 0.00 0.00 27 1013.3
20260505100021 26 183 11.3 27.4 0.00 0.00 0.00 28 1013.4
20260505095017 25 172 11.3 24.1 0.00 0.00 0.00 29 1013.5